Dewpoint
76 74 73 74 74 74 71 69 59 62 61 55 54 56 54 59 63 58 57 60 57 58 60 60 61 60 62 60 62 63 64 59 62 53 52 65 70 70 72 72 73 73 73 74 74 74 75 75 76 75 76 75 75 75 75 76 76 76 76 76 76 77 77 77 77 77 76 76 77 77 76 76 76 76 76 76 75 75 75 75 75 75 75 75 75 75 74 74 74 74 74 74 74 75 75 75 75
75 73 73 74 73 72 66 69 60 58 57 54 51 52 54 58 60 58 56 58 57 57 59 60 62 63 63 63 63 61 62 65 66 66 67 69 70 71 72 73 73 73 73 74 74 74 74 75 76 75 76 76 75 75 76 76 76 76 76 76 76 77 77 77 77 76 76 76 76 76 76 76 76 76 75 76 75 75 75 75 75 75 75 75 75 75 75 74 74 74 74 74 74 74 74 75 75
74 73 73 73 72 71 69 68 55 54 53 49 49 54 56 56 56 57 57 58 58 59 60 61 61 61 61 61 60 61 60 66 67 67 67 70 69 71 72 73 73 73 73 74 74 74 74 75 76 76 76 76 75 75 76 76 76 76 76 76 76 76 76 77 76 76 76 76 76 76 76 76 75 75 76 76 75 75 75 75 75 75 75 75 75 75 75 74 74 75 74 74 74 74 74 74 75
72 72 71 71 67 69 62 61 57 54 51 51 52 52 55 54 55 56 57 59 59 60 59 59 59 62 61 61 62 63 64 64 67 67 67 68 69 72 72 72 73 73 74 74 73 74 74 76 76 76 76 76 75 75 76 76 76 76 76 76 76 76 76 76 76 76 76 76 76 76 76 76 75 75 75 75 75 75 75 75 75 75 75 75 75 75 75 74 75 75 75 75 75 75 74 75 75
69 70 71 70 66 63 61 59 56 55 51 53 50 51 53 53 53 56 58 59 59 59 59 59 60 62 63 62 62 61 64 66 67 68 68 70 71 72 72 72 73 73 73 73 73 74 74 76 76 77 76 76 75 75 76 76 76 76 76 76 76 76 76 76 76 76 76 76 76 76 75 75 75 75 75 75 75 75 75 75 75 75 75 75 75 74 74 75 74 75 75 75 75 75 75 75 75
68 68 69 70 63 67 61 56 55 54 53 53 53 52 51 53 53 55 56 56 57 58 59 59 59 59 60 62 64 64 65 64 67 68 69 70 71 71 72 73 72 72 73 73 73 74 74 76 77 77 77 76 76 75 75 76 76 76 76 76 76 76 76 76 76 76 76 75 75 75 75 75 75 75 75 75 75 75 75 75 75 74 74 75 75 75 75 75 75 75 75 75 75 75 75 75 74
66 66 67 68 66 64 58 56 55 55 55 55 55 51 50 52 54 55 55 57 59 60 61 60 61 61 61 63 64 66 68 67 67 68 70 71 71 71 72 71 72 72 73 73 73 74 75 77 77 76 76 76 76 76 76 76 76 76 76 76 76 76 76 76 76 75 75 75 75 75 75 75 75 75 75 75 75 75 75 75 75 75 75 75 75 75 75 75 75 75 75 75 75 74 74 74 74
69 65 65 63 60 60 56 56 56 55 55 55 53 51 50 51 54 55 56 58 58 59 60 60 60 60 61 64 63 66 67 68 68 70 71 70 70 71 71 71 71 72 72 73 74 74 76 77 77 77 76 76 76 76 76 76 75 76 75 76 76 76 76 76 76 75 75 75 75 75 75 75 75 75 75 75 75 75 75 75 75 75 75 75 75 75 75 75 75 74 75 74 74 74 74 73 74
65 63 66 62 57 59 56 56 56 57 55 55 52 51 55 51 55 56 56 57 58 59 59 60 60 60 62 64 64 66 67 69 69 71 70 70 70 70 70 70 71 71 72 73 74 74 75 77 77 77 77 76 76 76 76 76 76 75 75 76 76 76 76 76 75 75 75 75 75 75 75 75 75 75 75 75 75 75 75 75 74 75 75 75 76 75 75 75 75 74 74 74 74 74 74 74 74
64 63 60 59 58 54 53 53 52 52 54 56 52 48 51 51 53 55 55 56 58 59 59 61 61 61 63 63 65 66 67 69 69 69 69 70 69 69 69 70 71 71 72 73 74 75 75 77 77 77 77 76 76 75 76 76 76 75 75 75 76 76 76 76 75 75 75 75 75 75 75 75 75 75 75 75 75 75 74 74 75 75 75 75 76 75 75 75 74 74 74 74 74 74 74 74 74
61 64 65 58 55 53 53 51 51 51 49 52 48 48 50 51 53 55 57 57 59 60 62 63 62 62 63 64 65 67 68 69 68 68 69 69 68 68 69 70 71 72 72 73 74 75 75 76 77 77 77 76 77 76 76 76 76 75 75 75 76 76 76 76 75 75 75 75 75 75 75 75 75 75 75 76 75 75 74 74 75 75 75 75 76 75 76 75 75 74 74 74 74 74 74 75 75
62 62 61 56 55 52 51 50 48 47 46 47 43 46 47 53 56 56 58 59 60 61 61 62 61 64 63 64 65 67 68 68 68 68 68 68 67 68 69 70 71 72 73 73 74 75 75 76 75 77 77 77 77 76 76 76 76 75 75 75 76 76 76 76 76 76 75 75 75 75 75 75 75 76 76 76 76 75 75 75 75 75 76 76 76 76 76 76 75 74 74 74 74 75 75 75 75
62 61 58 53 52 52 51 49 48 49 42 41 43 47 54 55 56 57 58 60 60 60 60 62 63 64 62 63 66 67 67 67 68 68 68 68 68 68 70 71 72 73 73 74 74 75 75 76 76 76 76 77 77 76 76 76 76 76 75 75 76 76 76 76 76 76 76 76 75 75 76 76 75 76 76 76 76 75 74 74 75 75 76 76 76 76 76 75 75 75 75 75 75 75 74 75 74
62 60 56 52 52 50 49 49 47 36 35 39 43 47 51 54 57 57 58 58 59 58 61 63 63 63 63 65 66 66 66 68 68 68 68 68 68 69 71 72 73 73 73 74 74 75 75 75 75 76 76 76 75 75 76 76 76 76 76 76 76 76 76 76 76 76 75 75 75 76 76 76 76 76 76 76 76 75 74 75 75 75 75 76 76 76 76 75 75 75 74 75 75 74 74 74 75
62 61 54 53 51 50 48 47 30 31 33 35 44 45 46 55 57 57 56 56 58 62 63 62 63 62 61 62 63 65 66 67 68 68 68 68 69 69 71 72 72 73 73 74 74 75 75 75 75 76 76 75 75 75 74 75 76 76 76 76 76 76 76 76 76 75 75 76 76 76 76 76 76 76 76 76 76 76 75 75 74 75 75 76 76 76 76 76 75 75 74 74 75 74 75 74 75
62 57 55 53 48 49 43 40 31 31 31 35 39 46 46 53 56 55 56 59 59 61 61 60 62 60 63 62 64 65 66 67 67 67 68 68 69 70 71 72 72 72 73 74 74 74 75 75 75 75 76 75 75 75 75 75 75 76 76 76 76 76 76 76 76 76 76 76 76 76 76 76 76 75 76 76 76 76 76 76 75 75 75 75 76 76 76 76 76 74 74 74 75 75 75 75 75
58 55 50 52 48 48 44 40 38 32 32 35 41 45 50 52 53 55 59 60 58 58 59 61 60 63 63 63 64 65 67 67 68 67 68 69 69 70 71 71 71 72 73 73 74 74 74 74 75 75 76 75 75 75 75 75 75 76 76 76 76 76 76 76 76 76 76 76 76 76 76 76 76 76 75 75 75 76 76 76 76 75 75 75 76 76 76 76 76 76 74 74 75 74 75 75 75
54 52 51 49 49 48 45 41 42 37 32 37 42 47 49 50 53 56 59 58 58 58 59 60 62 62 63 64 65 65 66 67 67 67 67 68 69 69 69 70 70 70 72 73 73 73 73 74 75 75 75 75 75 76 76 76 76 75 75 75 75 75 75 75 75 76 77 76 77 76 76 77 76 75 75 77 76 77 76 77 76 75 75 75 76 76 76 76 76 76 75 74 74 75 75 75 76
52 51 51 48 47 46 46 44 44 43 31 35 47 49 50 51 53 55 56 57 57 57 59 60 61 62 64 64 64 65 66 66 66 67 67 67 68 68 69 70 70 70 71 72 72 73 73 74 74 75 75 75 75 76 76 76 75 75 76 76 76 76 77 76 76 77 76 75 76 75 77 76 75 76 76 77 77 77 77 77 77 75 74 75 76 76 76 76 76 76 76 75 74 75 75 74 74
53 50 48 48 48 47 46 44 44 44 33 42 46 48 49 51 52 54 55 56 56 57 58 60 61 61 63 64 64 65 65 65 66 67 67 67 67 68 69 69 69 70 71 71 72 73 73 73 74 74 75 75 75 75 76 76 75 75 76 76 76 76 76 77 76 76 76 75 75 75 76 76 76 76 78 77 77 77 76 77 77 76 75 75 75 76 77 77 77 77 77 77 77 79 74 74 75
51 50 48 48 48 48 47 46 44 44 36 40 41 46 48 48 50 52 55 53 55 57 59 60 60 61 62 63 64 65 65 65 66 66 66 66 67 68 68 69 69 70 71 71 71 72 73 73 74 74 75 75 74 75 75 75 76 75 75 76 75 75 76 76 76 76 75 75 75 76 75 76 76 75 76 76 75 76 76 75 76 75 75 74 77 75 76 76 77 76 76 77 75 75 75 74 74
49 49 49 48 48 46 47 45 44 43 37 36 40 43 44 43 44 51 52 51 53 56 60 61 61 62 62 62 64 64 65 65 66 66 66 66 67 67 68 68 69 70 70 70 71 72 73 74 74 74 74 74 74 74 75 75 76 75 75 75 75 75 75 76 75 75 75 75 75 75 75 75 75 75 75 75 74 75 76 75 76 75 74 75 77 76 76 75 75 75 75 74 75 75 74 73 73
44 46 48 48 47 45 42 41 41 40 37 34 36 36 35 36 40 50 50 51 54 59 60 61 62 62 62 63 63 64 65 65 65 66 66 66 67 67 68 69 69 69 70 69 71 72 73 73 74 74 74 74 74 74 74 75 75 75 75 75 75 75 75 75 75 75 75 75 75 75 75 74 74 74 74 74 73 75 75 75 75 75 74 74 76 76 75 75 75 75 74 73 73 73 72 72 73
46 44 44 46 47 45 43 38 39 39 39 34 36 34 33 35 41 46 47 49 57 60 61 61 62 62 62 62 63 64 64 65 65 66 66 67 67 68 68 68 69 69 70 70 71 72 73 73 73 74 73 73 73 74 74 75 75 74 75 76 75 75 75 75 75 75 75 75 75 75 76 74 74 74 74 74 74 73 75 75 74 75 75 73 75 73 74 74 74 73 74 74 73 72 73 72 72
45 45 45 43 45 45 42 39 39 39 40 40 34 32 33 31 38 41 43 54 58 60 61 61 62 62 62 62 62 63 64 65 65 65 66 67 68 68 68 69 69 70 69 70 71 72 72 73 73 73 73 74 73 74 74 74 74 74 74 75 75 76 75 75 75 75 74 75 75 75 76 74 73 73 73 73 74 73 73 73 73 74 74 73 74 73 73 73 73 73 73 73 73 72 72 71 72
42 39 38 40 43 43 41 38 38 38 41 40 35 34 35 32 38 40 53 56 59 60 61 61 61 61 62 62 62 63 64 64 65 65 65 67 67 68 68 69 69 69 70 70 71 72 72 73 73 73 73 73 73 73 74 74 73 74 74 74 74 75 75 74 74 74 74 74 75 75 75 74 73 72 72 73 74 73 72 72 73 72 73 73 74 74 74 73 73 73 73 73 73 72 72 71 71
36 34 32 35 38 41 40 38 38 38 40 40 38 39 39 37 47 52 55 57 59 60 60 61 61 61 61 62 63 64 64 64 65 65 65 66 67 68 68 69 69 69 70 70 71 71 73 73 73 73 73 74 74 73 74 74 73 73 74 74 74 74 74 74 74 73 74 74 74 75 75 75 73 71 72 72 72 72 72 72 72 73 73 73 74 74 75 73 73 73 73 72 72 72 72 72 71
32 32 30 29 29 34 40 39 38 37 39 40 39 39 37 35 51 53 56 57 59 59 59 60 60 61 61 62 63 65 64 65 65 65 65 65 66 67 68 68 69 69 70 70 71 71 72 73 73 73 73 74 74 73 74 73 72 73 74 73 73 74 74 73 73 73 74 74 74 75 74 74 75 72 72 72 72 72 72 72 73 72 72 73 74 74 74 75 73 73 74 73 72 73 72 71 71
28 29 27 29 29 24 38 38 38 38 36 41 40 38 36 37 51 54 56 57 58 58 58 59 60 60 61 62 63 64 64 65 65 65 65 65 66 67 67 68 69 69 70 70 71 71 72 73 73 73 74 74 74 73 73 73 72 72 73 73 73 74 73 73 73 72 73 73 74 74 74 74 76 74 73 73 75 72 72 72 73 73 73 74 74 74 74 74 74 73 73 74 73 72 71 71 71
23 25 27 26 24 22 25 38 38 36 36 40 38 36 36 40 53 55 57 57 57 57 58 59 59 60 60 61 62 63 64 64 64 65 65 65 66 66 67 68 69 69 70 70 70 70 71 72 73 73 74 74 74 73 72 72 72 72 72 72 73 73 73 73 72 72 73 73 74 74 74 74 75 75 74 73 73 73 73 72 72 73 74 74 74 74 73 74 72 71 71 72 74 72 71 70 69
17 20 20 19 20 21 22 34 38 35 37 39 39 36 36 44 53 55 56 56 56 56 57 58 58 59 59 60 61 62 63 64 63 64 64 64 65 65 66 67 68 69 70 69 70 70 71 72 72 72 74 73 74 72 72 71 71 72 71 71 72 73 72 72 72 72 72 72 74 74 74 74 75 75 75 74 73 73 72 72 73 73 74 74 73 73 74 73 72 71 73 71 71 71 70 70 69
20 16 17 18 19 20 21 27 32 34 37 38 38 40 37 44 53 55 56 56 56 56 57 57 58 58 59 59 61 61 62 62 62 62 62 63 64 64 65 66 67 68 69 69 70 70 70 71 72 72 73 72 73 72 71 71 71 71 71 73 72 72 72 71 71 71 72 73 74 74 75 75 75 75 75 75 73 73 73 73 73 74 75 74 73 73 73 72 71 72 73 71 69 70 71 68 68
20 16 18 16 18 19 20 21 29 32 37 36 36 36 38 42 52 55 56 56 56 56 57 57 57 57 58 59 60 60 61 61 61 60 61 62 63 64 65 65 66 67 68 69 69 69 69 70 72 71 72 72 72 72 71 71 71 71 71 71 72 72 71 71 71 72 73 73 74 74 75 76 75 75 76 76 73 73 73 74 74 74 75 74 73 73 73 73 71 71 70 73 70 69 69 68 67
19 20 18 18 16 19 20 22 25 30 36 34 35 36 38 41 50 53 55 56 56 56 56 56 57 57 58 58 59 60 60 59 59 60 61 61 63 63 65 67 66 67 68 68 69 69 69 69 70 71 72 71 72 71 71 71 71 71 71 72 73 72 71 71 71 71 72 73 74 74 75 76 75 75 76 76 75 74 74 74 75 75 74 73 73 73 72 72 71 71 70 71 72 69 66 67 66
17 21 20 17 19 18 18 18 25 31 36 33 35 37 38 40 48 51 53 55 54 55 55 56 56 56 57 57 58 59 59 58 59 59 60 61 61 62 64 65 65 67 67 68 69 68 69 69 70 71 71 71 71 71 71 71 71 72 71 71 72 71 71 71 71 71 71 72 73 74 75 76 76 75 75 76 76 75 74 74 75 75 74 73 72 72 72 72 72 71 70 70 72 68 67 67 65
16 17 18 19 17 17 17 18 19 30 33 32 36 36 38 38 42 49 51 52 52 53 53 55 55 55 55 57 58 58 58 57 58 59 60 61 61 62 63 65 65 66 67 68 69 68 68 69 69 71 71 71 71 71 72 71 70 71 70 71 71 71 71 71 71 70 71 71 72 74 75 75 76 76 75 76 75 76 75 74 75 75 74 73 72 71 71 71 71 70 70 69 68 66 68 67 66
18 18 18 17 17 18 18 18 19 32 32 32 35 37 38 35 35 47 49 50 50 51 51 53 54 54 54 56 57 57 57 56 57 58 59 60 60 62 63 64 65 66 67 67 68 67 68 68 69 70 71 71 71 70 72 70 69 70 70 70 69 70 70 70 71 71 70 71 72 74 75 75 76 76 76 76 75 77 75 74 74 74 74 73 72 72 72 72 71 71 69 67 62 61 61 67 67
16 16 17 17 18 17 18 18 25 32 32 32 35 37 38 37 35 42 48 48 47 50 50 51 53 53 53 55 56 56 56 56 56 57 58 60 60 60 61 63 66 65 66 67 67 67 67 68 68 70 71 71 70 70 71 71 70 69 69 69 69 70 70 70 70 71 71 72 74 74 75 75 76 76 76 76 75 75 74 74 74 74 74 73 73 73 72 74 72 68 66 64 66 63 63 67 65
16 16 16 17 18 18 19 20 20 22 28 31 33 36 37 38 38 38 44 45 46 49 49 50 52 52 52 54 55 56 55 55 55 56 57 58 59 60 61 63 65 65 66 66 67 67 67 68 68 70 71 70 70 70 71 71 70 70 69 70 70 70 71 71 70 71 73 74 75 75 75 75 76 76 76 76 75 74 74 74 73 73 73 73 72 72 71 70 65 66 63 63 62 65 65 67 64
16 15 15 15 17 18 17 19 22 24 24 29 33 34 36 38 39 39 39 42 44 47 48 49 51 51 51 52 54 55 55 55 55 55 56 57 58 59 60 62 64 65 66 66 67 66 67 68 68 69 70 71 70 70 71 71 71 71 70 71 71 70 70 72 71 72 73 75 75 76 76 75 76 76 76 76 75 74 73 73 73 73 73 73 72 69 68 65 67 65 64 66 63 61 63 63 69
17 16 15 15 15 16 18 18 20 25 26 31 32 37 36 37 38 40 40 39 41 44 46 47 50 51 51 51 53 55 54 55 55 55 55 57 58 59 60 61 63 64 65 65 66 66 67 67 68 69 70 71 71 71 71 71 72 71 71 71 72 71 72 71 71 70 72 75 75 76 76 76 75 76 76 76 75 73 73 73 74 73 72 72 70 67 66 65 67 65 66 67 63 63 61 64 66
14 16 16 15 15 15 17 18 18 19 26 30 32 32 33 38 38 40 41 41 41 42 43 44 48 49 50 50 52 54 55 55 55 55 55 56 58 59 60 61 62 63 65 65 66 66 66 67 67 69 70 71 71 70 71 71 71 71 70 70 69 69 69 70 69 69 70 73 74 76 76 76 75 76 76 76 75 74 72 73 73 73 72 71 70 67 66 66 66 65 66 65 64 64 64 64 62
12 13 16 16 15 15 16 17 20 28 26 31 32 30 32 39 38 39 41 41 41 42 42 42 46 48 48 49 50 53 54 55 55 55 55 56 58 59 59 60 61 62 64 65 66 66 66 67 67 69 69 71 71 71 71 72 71 71 70 69 69 69 69 69 70 70 70 72 74 75 75 76 75 75 75 75 75 74 72 73 73 72 71 69 70 67 66 66 64 65 67 64 66 68 64 62 63
11 13 15 15 15 15 15 16 17 28 34 28 31 30 33 33 35 39 40 40 41 42 42 42 44 47 47 48 49 52 54 54 55 55 56 56 57 59 59 60 61 62 64 65 66 66 66 67 68 69 70 71 71 71 71 71 71 71 70 70 70 69 69 69 70 70 71 73 74 74 75 75 75 75 75 75 74 74 73 73 72 71 69 68 70 66 65 66 66 67 68 67 67 66 64 63 63
12 12 12 15 16 16 16 16 17 18 20 19 26 32 33 34 35 38 40 39 40 40 42 43 43 45 47 47 48 51 53 54 55 56 56 56 57 58 59 60 60 61 63 65 66 66 67 67 68 68 70 71 71 72 71 71 71 71 70 70 70 70 69 70 70 71 70 73 73 74 74 75 75 75 74 74 74 73 73 72 71 70 68 68 71 66 65 66 66 67 67 66 66 66 65 64 63
11 10 11 10 10 15 17 17 16 19 20 21 25 26 27 32 40 37 40 38 38 40 41 43 44 44 45 47 47 49 52 54 55 56 56 56 57 58 59 60 61 61 63 66 66 67 67 67 68 69 69 71 71 71 72 71 71 71 70 70 69 69 69 70 71 70 70 72 73 73 74 74 74 74 74 74 73 73 72 72 71 69 67 67 71 65 65 67 66 67 66 64 65 66 66 66 63
12 7 6 7 7 8 14 21 22 22 17 19 23 27 27 26 36 36 38 38 38 39 41 42 44 45 45 46 46 48 51 53 54 55 56 57 57 58 59 60 61 61 63 65 66 67 67 67 68 69 69 70 71 71 71 71 71 71 70 70 69 69 70 70 70 70 70 71 71 73 73 73 74 73 73 73 72 71 72 71 70 68 67 69 71 66 65 67 66 66 65 65 65 65 65 64 67
10 6 4 5 9 14 18 23 29 19 15 23 20 25 28 25 32 38 38 39 38 39 40 42 43 45 45 46 46 47 49 52 53 55 56 57 57 57 58 60 61 61 63 64 66 67 68 68 68 69 69 69 71 71 71 71 71 71 70 70 69 70 70 70 70 70 70 70 70 71 73 73 73 73 72 72 71 70 71 71 70 69 68 68 68 67 65 66 66 66 66 66 65 65 65 66 66
8 5 8 4 9 9 5 10 9 15 14 25 24 25 27 27 33 35 38 39 39 39 39 41 42 44 46 46 46 47 48 50 52 53 55 57 57 57 58 60 61 62 63 64 65 67 68 68 68 69 69 70 70 71 71 71 71 71 70 70 69 70 71 71 70 70 71 70 70 71 71 72 72 72 71 71 70 70 71 70 69 69 68 69 68 66 65 66 66 66 66 66 66 65 64 65 64
6 5 10 6 4 5 9 10 18 21 26 27 20 28 26 33 30 37 36 38 39 40 40 41 41 44 46 46 47 47 48 49 50 52 54 56 57 57 57 59 61 62 62 63 65 66 68 69 69 69 69 70 70 70 71 71 71 71 71 70 70 70 70 71 71 70 71 70 70 71 71 71 71 71 71 70 71 70 70 70 69 69 69 68 68 66 66 66 66 65 66 66 66 65 64 65 63
6 4 4 7 6 8 10 11 8 9 19 24 21 21 26 23 27 34 37 38 38 40 41 42 42 43 46 46 46 47 48 49 50 51 52 54 57 57 57 58 61 61 62 63 64 66 68 69 69 69 69 70 71 70 70 71 71 71 71 71 71 70 70 71 71 71 71 71 71 71 71 71 71 71 71 70 71 70 70 70 69 68 69 68 67 65 66 65 66 66 66 66 66 65 65 65 64
4 3 3 7 5 21 7 22 16 18 16 19 24 22 27 21 35 36 36 37 38 40 41 43 43 43 45 46 45 46 48 49 50 51 52 53 56 57 57 58 60 61 62 62 64 65 67 68 69 69 69 70 71 71 70 70 71 71 72 71 71 71 71 71 71 72 71 71 71 71 71 71 70 70 71 70 70 70 70 69 69 68 68 68 66 64 66 65 65 65 66 65 65 66 65 64 63
8 3 1 2 11 5 15 31 27 27 24 14 32 29 27 31 26 35 37 36 37 39 40 42 43 43 45 46 46 45 47 49 50 51 52 53 54 56 56 57 59 61 61 62 63 65 66 68 69 69 70 70 71 72 71 71 70 71 71 72 71 71 72 71 71 71 71 71 71 71 71 70 70 70 71 70 70 70 70 70 69 69 69 68 66 64 65 65 65 65 65 65 64 65 65 64 63
7 2 4 6 7 5 9 7 14 8 11 19 16 14 22 24 22 33 35 37 36 38 39 40 43 44 44 45 47 46 45 48 50 51 53 53 54 56 56 56 58 60 61 62 63 64 66 67 69 69 70 70 70 71 72 71 71 70 71 72 72 72 72 72 71 71 72 71 71 71 71 70 70 70 71 70 70 70 70 71 69 69 69 67 65 63 64 65 65 65 65 64 64 65 65 65 64
4 3 6 1 9 3 16 17 4 6 6 12 18 18 22 25 27 33 35 36 37 38 39 39 42 43 44 44 46 47 46 46 49 51 52 53 54 55 56 56 58 60 62 62 63 64 65 67 68 69 69 70 70 71 71 72 72 71 71 71 72 72 72 72 72 72 72 71 70 71 70 70 70 70 71 71 70 70 70 70 69 69 68 67 65 63 64 64 65 65 65 64 64 65 64 63 64
13 8 5 4 10 5 9 9 19 15 14 12 10 21 17 29 29 31 29 36 37 37 39 38 39 42 44 44 45 47 47 47 47 49 51 53 54 54 55 56 57 60 61 62 63 64 65 66 68 69 70 70 70 71 71 72 72 72 72 72 72 73 73 73 72 72 71 71 70 71 70 70 70 71 70 71 70 70 70 69 69 68 67 66 65 63 65 64 64 64 65 64 64 65 64 63 63
13 11 9 17 10 14 5 15 4 16 22 18 16 12 21 30 34 31 28 33 37 37 38 39 39 40 43 44 44 46 47 47 47 48 50 52 54 54 55 56 57 59 62 62 63 64 64 66 67 69 69 70 70 70 71 72 72 72 73 72 72 73 73 73 73 72 71 71 71 71 71 70 71 71 70 70 70 70 70 69 69 68 66 65 65 64 65 65 64 63 64 64 64 64 64 63 63
14 13 12 9 3 10 3 6 7 16 15 18 17 10 28 32 33 31 27 30 34 36 37 38 39 39 40 43 44 45 46 47 47 47 49 51 53 55 55 57 58 59 61 62 63 64 64 65 67 68 69 70 70 71 71 72 72 72 73 73 73 73 73 73 73 72 72 71 71 71 71 71 71 70 71 70 70 70 70 69 68 68 67 65 65 65 65 65 64 63 63 64 64 64 64 64 64